sat.trackr.live / text

‹ back to catalog

STARLINK-33940

NORAD 63831 · 2025-092AD

PAYLOAD ACTIVE UNKNOWN

§ Identity

Operator
Country
US
Launch date
2025-05-04
Launch site
AFETR
Launch vehicle
Mass (kg)
RCS (m²)

Purposes: comms

External: N2YO · Heavens-Above · Gunter

§ Orbital elements

Epoch: 2026-09-20T09:47:00.423456Z

Period
94.27 min
Inclination
43.0020°
Eccentricity
0.0000410
Mean motion
15.27592303 rev/d
Perigee alt
482.7 km
Apogee alt
483.3 km
Semi-major
6,861.1 km
B*
4.6412e-4
RAAN
152.9337°
Arg perigee
325.6905°
Mean anomaly
34.3920°
Rev number
7,844

§ Raw data

STARLINK-339401 63831U 25092AD  26263.40764379  .00012536  00000+0  46412-3 0  99942 63831  43.0020 152.9337 0000410 325.6905  34.3920 15.27592303 78448

JSON: /api/v1/satellites/63831 · /tle

For live sub-satellite position, see the globe view (requires WebGL).

§ Visibility from observer

Set your observer location to see the next 7 days of passes ≥ 10°. The values pass through the URL so the page stays shareable.

No JS? Fill the form by hand. The geolocation button needs JavaScript.